• In Latvia
  • List of Countries
  • For 7 days
  • Water Temperature
  • Satellite Maps
  • Weather Map
  • Weather Widgets
  • user-avatar
    Login

    Hourly Weather Prutz

    Today, 24 July, Monday

    Time Temperature Precipitation Wind Pressure Humidity
    00:00 +13°C° 0.7 mm 1 mps 634 mmHg 97%
    01:00 +13°C° 0 mm 1 mps 633 mmHg 97%
    02:00 +13°C° 1.4 mm 1 mps 633 mmHg 97%
    03:00 +12°C° 1.4 mm 1 mps 632 mmHg 97%
    04:00 +12°C° 1.4 mm 1 mps 632 mmHg 97%
    05:00 +12°C° 1.4 mm 1 mps 632 mmHg 96%
    06:00 +13°C° 1.4 mm 1 mps 631 mmHg 95%
    07:00 +13°C° 1.4 mm 1 mps 631 mmHg 94%
    08:00 +13°C° 2 mm 1 mps 631 mmHg 93%
    09:00 +13°C° 2 mm 1 mps 631 mmHg 92%
    10:00 +13°C° 2 mm 2 mps 630 mmHg 91%
    11:00 +12°C° 2.9 mm 2 mps 630 mmHg 92%
    12:00 +12°C° 2.9 mm 2 mps 630 mmHg 93%
    13:00 +10°C° 2.9 mm 2 mps 630 mmHg 94%
    14:00 +10°C° 3.3 mm 2 mps 630 mmHg 95%
    15:00 +9°C° 3.3 mm 2 mps 630 mmHg 96%
    16:00 +9°C° 3.3 mm 2 mps 630 mmHg 97%
    17:00 +9°C° 0.8 mm 2 mps 630 mmHg 96%
    18:00 +9°C° 0.8 mm 2 mps 630 mmHg 96%
    19:00 +9°C° 0.8 mm 2 mps 630 mmHg 95%
    20:00 +8°C° 0.1 mm 2 mps 630 mmHg 95%
    21:00 +8°C° 0.1 mm 2 mps 630 mmHg 96%
    22:00 +7°C° 0.1 mm 2 mps 630 mmHg 96%
    23:00 +7°C° 0 mm 2 mps 630 mmHg 96%

    Tomorrow, 25 July, Tuesday

    Time Temperature Precipitation Wind Pressure Humidity
    00:00 +6°C° 0 mm 2 mps 630 mmHg 96%
    01:00 +6°C° 0 mm 2 mps 630 mmHg 96%
    02:00 +6°C° 0.2 mm 2 mps 630 mmHg 95%
    03:00 +6°C° 0.2 mm 2 mps 629 mmHg 95%
    04:00 +6°C° 0.2 mm 2 mps 629 mmHg 94%
    05:00 +6°C° 0.2 mm 2 mps 629 mmHg 93%
    06:00 +7°C° 0.2 mm 2 mps 630 mmHg 91%
    07:00 +8°C° 0.2 mm 2 mps 630 mmHg 90%
    08:00 +9°C° 0.4 mm 2 mps 630 mmHg 86%
    09:00 +9°C° 0.4 mm 2 mps 630 mmHg 82%
    10:00 +10°C° 0.4 mm 2 mps 630 mmHg 78%
    11:00 +10°C° 0.6 mm 2 mps 630 mmHg 78%
    12:00 +12°C° 0.6 mm 2 mps 630 mmHg 78%
    13:00 +12°C° 0.6 mm 2 mps 630 mmHg 78%
    14:00 +12°C° 0.5 mm 2 mps 630 mmHg 75%
    15:00 +12°C° 0.5 mm 3 mps 630 mmHg 71%
    16:00 +12°C° 0.5 mm 3 mps 630 mmHg 67%
    17:00 +12°C° 0.3 mm 2 mps 630 mmHg 72%
    18:00 +10°C° 0.3 mm 2 mps 630 mmHg 77%
    19:00 +9°C° 0.3 mm 2 mps 629 mmHg 81%
    20:00 +9°C° 0.1 mm 2 mps 629 mmHg 84%
    21:00 +8°C° 0.1 mm 2 mps 629 mmHg 87%
    22:00 +7°C° 0.1 mm 2 mps 629 mmHg 90%
    23:00 +6°C° 0 mm 2 mps 629 mmHg 91%

    Day after tomorrow, 26 July, Wednesday

    Time Temperature Precipitation Wind Pressure Humidity
    00:00 +6°C° 0 mm 2 mps 629 mmHg 91%
    01:00 +6°C° 0 mm 2 mps 628 mmHg 92%
    02:00 +5°C° 0 mm 2 mps 628 mmHg 91%
    03:00 +5°C° 0 mm 2 mps 628 mmHg 90%
    04:00 +5°C° 0 mm 2 mps 628 mmHg 89%
    05:00 +6°C° 0.7 mm 2 mps 628 mmHg 89%
    06:00 +6°C° 0.7 mm 2 mps 628 mmHg 88%
    07:00 +7°C° 0.7 mm 2 mps 628 mmHg 87%
    08:00 +8°C° 0.7 mm 2 mps 629 mmHg 85%
    09:00 +9°C° 0.7 mm 2 mps 629 mmHg 83%
    10:00 +10°C° 0.7 mm 2 mps 629 mmHg 82%
    11:00 +10°C° 0.8 mm 2 mps 630 mmHg 81%
    12:00 +10°C° 0.8 mm 2 mps 630 mmHg 80%
    13:00 +10°C° 0.8 mm 2 mps 630 mmHg 79%
    14:00 +10°C° 0.8 mm 2 mps 630 mmHg 80%
    15:00 +10°C° 0.8 mm 2 mps 630 mmHg 82%
    16:00 +10°C° 0.8 mm 2 mps 630 mmHg 83%
    17:00 +9°C° 0.5 mm 2 mps 630 mmHg 85%
    18:00 +9°C° 0.5 mm 2 mps 630 mmHg 87%
    19:00 +8°C° 0.5 mm 2 mps 630 mmHg 89%
    20:00 +8°C° 0.4 mm 2 mps 631 mmHg 90%
    21:00 +7°C° 0.4 mm 2 mps 631 mmHg 92%
    22:00 +7°C° 0.4 mm 2 mps 631 mmHg 93%
    23:00 +7°C° 0.2 mm 2 mps 631 mmHg 94%

    27 July, Thursday

    Time Temperature Precipitation Wind Pressure Humidity
    00:00 +7°C° 0.2 mm 2 mps 631 mmHg 94%
    01:00 +6°C° 0.2 mm 2 mps 631 mmHg 95%
    02:00 +6°C° 0.1 mm 2 mps 631 mmHg 95%
    03:00 +6°C° 0.1 mm 2 mps 631 mmHg 94%
    04:00 +5°C° 0.1 mm 2 mps 631 mmHg 94%
    05:00 +7°C° 0 mm 2 mps 631 mmHg 90%
    06:00 +9°C° 0 mm 1 mps 632 mmHg 86%
    07:00 +10°C° 0 mm 1 mps 632 mmHg 82%
    08:00 +12°C° 0 mm 1 mps 632 mmHg 72%
    09:00 +14°C° 0 mm 1 mps 633 mmHg 61%
    10:00 +16°C° 0 mm 1 mps 633 mmHg 50%
    11:00 +15°C° 0.1 mm 1 mps 633 mmHg 55%
    12:00 +15°C° 0.1 mm 1 mps 633 mmHg 59%
    13:00 +15°C° 0.1 mm 1 mps 633 mmHg 64%
    14:00 +16°C° 0.1 mm 1 mps 633 mmHg 64%
    15:00 +16°C° 0.1 mm 1 mps 633 mmHg 65%
    16:00 +16°C° 0.1 mm 2 mps 633 mmHg 65%
    17:00 +15°C° 0.1 mm 2 mps 633 mmHg 70%
    18:00 +15°C° 0.1 mm 2 mps 633 mmHg 74%
    19:00 +14°C° 0.1 mm 2 mps 633 mmHg 78%
    20:00 +12°C° 0 mm 1 mps 633 mmHg 82%
    21:00 +11°C° 0 mm 1 mps 633 mmHg 86%
    22:00 +9°C° 0 mm 1 mps 633 mmHg 90%
    23:00 +9°C° 0 mm 1 mps 633 mmHg 89%

    28 July, Friday

    Time Temperature Precipitation Wind Pressure Humidity
    00:00 +9°C° 0 mm 1 mps 633 mmHg 89%
    01:00 +9°C° 0 mm 1 mps 633 mmHg 89%
    02:00 +8°C° 0 mm 1 mps 632 mmHg 89%
    03:00 +8°C° 0 mm 1 mps 632 mmHg 89%
    04:00 +8°C° 0 mm 1 mps 632 mmHg 89%
    05:00 +10°C° 0 mm 1 mps 633 mmHg 85%
    06:00 +12°C° 0 mm 1 mps 634 mmHg 81%
    07:00 +13°C° 0 mm 1 mps 635 mmHg 77%
    08:00 +15°C° 0 mm 1 mps 635 mmHg 70%
    09:00 +17°C° 0 mm 2 mps 636 mmHg 63%
    10:00 +19°C° 0 mm 2 mps 637 mmHg 56%
    11:00 +19°C° 0.2 mm 2 mps 637 mmHg 56%
    12:00 +20°C° 0.2 mm 2 mps 637 mmHg 55%
    13:00 +20°C° 0.2 mm 2 mps 637 mmHg 55%
    14:00 +20°C° 0.3 mm 2 mps 637 mmHg 58%
    15:00 +20°C° 0.3 mm 2 mps 637 mmHg 60%
    16:00 +19°C° 0.3 mm 3 mps 637 mmHg 63%
    17:00 +18°C° 0.2 mm 2 mps 637 mmHg 70%
    18:00 +17°C° 0.2 mm 2 mps 637 mmHg 77%
    19:00 +16°C° 0.2 mm 2 mps 637 mmHg 84%
    20:00 +14°C° 0 mm 1 mps 637 mmHg 88%
    21:00 +13°C° 0 mm 1 mps 637 mmHg 92%
    22:00 +12°C° 0 mm 1 mps 637 mmHg 95%
    23:00 +11°C° 0 mm 1 mps 637 mmHg 95%

    29 July, Saturday

    Time Temperature Precipitation Wind Pressure Humidity
    00:00 +11°C° 0 mm 1 mps 636 mmHg 95%
    01:00 +10°C° 0 mm 1 mps 636 mmHg 95%
    02:00 +10°C° 0 mm 1 mps 636 mmHg 94%
    03:00 +10°C° 0 mm 1 mps 636 mmHg 93%
    04:00 +10°C° 0 mm 1 mps 636 mmHg 92%
    05:00 +11°C° 0 mm 1 mps 636 mmHg 87%
    06:00 +13°C° 0 mm 1 mps 637 mmHg 82%
    07:00 +14°C° 0 mm 0 mps 638 mmHg 77%
    08:00 +18°C° 0 mm 1 mps 638 mmHg 70%
    09:00 +20°C° 0 mm 1 mps 639 mmHg 62%
    10:00 +21°C° 0 mm 1 mps 640 mmHg 55%
    11:00 +22°C° 0.1 mm 1 mps 640 mmHg 54%
    12:00 +22°C° 0.1 mm 1 mps 640 mmHg 54%
    13:00 +23°C° 0.1 mm 1 mps 640 mmHg 53%
    14:00 +22°C° 0.7 mm 1 mps 639 mmHg 59%
    15:00 +21°C° 0.7 mm 2 mps 639 mmHg 65%
    16:00 +20°C° 0.7 mm 2 mps 639 mmHg 70%
    17:00 +20°C° 1.5 mm 1 mps 638 mmHg 77%
    18:00 +19°C° 1.5 mm 1 mps 638 mmHg 85%
    19:00 +16°C° 1.5 mm 1 mps 638 mmHg 92%
    20:00 +16°C° 1.5 mm 1 mps 638 mmHg 93%
    21:00 +15°C° 1.5 mm 1 mps 638 mmHg 94%
    22:00 +13°C° 1.5 mm 0 mps 638 mmHg 95%
    23:00 +14°C° 0.8 mm 1 mps 638 mmHg 95%
    Show more